N624KE KOPF-MBPV

Flight info

Callsign N624KE
Flight time 1h 48m
Altitude 33000
Route HUSIL3 CAMIX DCT BITAC DCT BTLER
Aircraft P180/L-SBDFGM3RWXY/LB1

Departure

Time 2026-05-08 23:21
Airport Miami-Opa Locka Executive Airport (KOPF)

Arrival

Time 2026-05-09 01:10
Airport Providenciales International Airport (MBPV)
Time Latitude Longitude Altitude Speed Heading
2026-05-08 23:19 25.91135 -80.28813 11 ft 0 kts 285°
2026-05-08 23:19 25.91135 -80.28814 11 ft 1 kts 286°
2026-05-08 23:20 25.91143 -80.28828 11 ft 4 kts 315°
2026-05-08 23:20 25.91199 -80.28841 11 ft 9 kts 357°
2026-05-08 23:20 25.91259 -80.28843 12 ft 5 kts 15°
2026-05-08 23:20 25.91269 -80.28788 12 ft 21 kts 87°
2026-05-08 23:21 25.91291 -80.28334 9 ft 92 kts 87°
2026-05-08 23:21 25.91337 -80.27480 131 ft 120 kts 88°
2026-05-08 23:21 25.91396 -80.26516 586 ft 130 kts 87°
2026-05-08 23:21 25.91471 -80.25424 916 ft 158 kts 87°
2026-05-08 23:22 25.91563 -80.24161 1511 ft 168 kts 88°
2026-05-08 23:22 25.91637 -80.22827 2138 ft 172 kts 90°
2026-05-08 23:22 25.91684 -80.21533 2841 ft 168 kts 88°
2026-05-08 23:22 25.91734 -80.20214 3338 ft 177 kts 86°
2026-05-08 23:23 25.91818 -80.18829 3846 ft 182 kts 84°
2026-05-08 23:23 25.91902 -80.17620 4321 ft 185 kts 83°
2026-05-08 23:23 25.92009 -80.16179 4867 ft 190 kts 85°
2026-05-08 23:23 25.92082 -80.14736 5515 ft 183 kts 85°
2026-05-08 23:24 25.92164 -80.13334 6115 ft 183 kts 86°
2026-05-08 23:24 25.92211 -80.11875 6502 ft 194 kts 88°
2026-05-08 23:24 25.92334 -80.10376 7000 ft 194 kts 80°
2026-05-08 23:24 25.92504 -80.08915 7539 ft 191 kts 95°
2026-05-08 23:25 25.92281 -80.07423 7855 ft 200 kts 107°
2026-05-08 23:25 25.91930 -80.05954 8467 ft 191 kts 105°
2026-05-08 23:25 25.91773 -80.04508 9064 ft 191 kts 92°
2026-05-08 23:25 25.91902 -80.03012 9381 ft 200 kts 94°
2026-05-08 23:26 25.91639 -80.01492 9703 ft 203 kts 114°
2026-05-08 23:26 25.91077 -80.00076 10242 ft 194 kts 118°
2026-05-08 23:26 25.90514 -79.98760 10793 ft 188 kts 119°
2026-05-08 23:26 25.89934 -79.97400 10990 ft 202 kts 117°
2026-05-08 23:27 25.89382 -79.96017 11593 ft 190 kts 117°
2026-05-08 23:27 25.88819 -79.94676 11951 ft 194 kts 118°
2026-05-08 23:27 25.88208 -79.93327 12327 ft 196 kts 121°
2026-05-08 23:27 25.87555 -79.91993 12697 ft 198 kts 122°
2026-05-08 23:28 25.86864 -79.90662 13055 ft 200 kts 124°
2026-05-08 23:28 25.86144 -79.89361 13415 ft 201 kts 126°
2026-05-08 23:28 25.85372 -79.88053 13767 ft 203 kts 127°
2026-05-08 23:28 25.84562 -79.86759 14070 ft 205 kts 128°
2026-05-08 23:29 25.83716 -79.85479 14386 ft 206 kts 129°
2026-05-08 23:29 25.82832 -79.84218 14691 ft 207 kts 131°
2026-05-08 23:29 25.81913 -79.82978 14986 ft 208 kts 133°
2026-05-08 23:29 25.80961 -79.81759 15275 ft 209 kts 134°
2026-05-08 23:30 25.79990 -79.80545 15561 ft 212 kts 128°
2026-05-08 23:30 25.79385 -79.79063 15845 ft 216 kts 110°
2026-05-08 23:30 25.78901 -79.77479 16121 ft 217 kts 110°
2026-05-08 23:30 25.78414 -79.75882 16396 ft 219 kts 110°
2026-05-08 23:31 25.77925 -79.74273 16665 ft 220 kts 110°
2026-05-08 23:31 25.77435 -79.72656 16930 ft 222 kts 110°
2026-05-08 23:31 25.76943 -79.71030 17222 ft 222 kts 110°
2026-05-08 23:31 25.76445 -79.69385 17404 ft 227 kts 110°
2026-05-08 23:32 25.75943 -79.67719 17659 ft 228 kts 110°
2026-05-08 23:32 25.75440 -79.66049 17932 ft 228 kts 110°
2026-05-08 23:32 25.74936 -79.64373 18170 ft 230 kts 110°
2026-05-08 23:32 25.74430 -79.62685 18393 ft 231 kts 110°
2026-05-08 23:33 25.73921 -79.60991 18587 ft 233 kts 110°
2026-05-08 23:33 25.73410 -79.59281 18786 ft 234 kts 110°
2026-05-08 23:33 25.72895 -79.57560 18982 ft 236 kts 110°
2026-05-08 23:33 25.72376 -79.55828 19178 ft 237 kts 110°
2026-05-08 23:34 25.71856 -79.54083 19377 ft 239 kts 110°
2026-05-08 23:34 25.71338 -79.52355 19556 ft 240 kts 111°
2026-05-08 23:34 25.70800 -79.50597 19752 ft 242 kts 111°
2026-05-08 23:34 25.69952 -79.49026 19933 ft 236 kts 141°
2026-05-08 23:35 25.68632 -79.47977 20127 ft 232 kts 155°
2026-05-08 23:35 25.67252 -79.47017 20321 ft 236 kts 149°
2026-05-08 23:35 25.66008 -79.45801 20516 ft 241 kts 137°
2026-05-08 23:35 25.65016 -79.44279 20712 ft 247 kts 120°
2026-05-08 23:36 25.64370 -79.42499 20898 ft 250 kts 111°
2026-05-08 23:36 25.63777 -79.40683 21091 ft 251 kts 114°
2026-05-08 23:36 25.63096 -79.38895 21277 ft 252 kts 116°
2026-05-08 23:36 25.62394 -79.37106 21488 ft 254 kts 115°
2026-05-08 23:37 25.61708 -79.35320 21679 ft 255 kts 115°
2026-05-08 23:37 25.61015 -79.33503 21875 ft 257 kts 115°
2026-05-08 23:37 25.60315 -79.31674 22074 ft 258 kts 115°
2026-05-08 23:37 25.59614 -79.29837 22274 ft 260 kts 115°
2026-05-08 23:38 25.58902 -79.27985 22474 ft 261 kts 115°
2026-05-08 23:38 25.58191 -79.26126 22672 ft 263 kts 115°
2026-05-08 23:38 25.57472 -79.24256 22875 ft 264 kts 115°
2026-05-08 23:38 25.56751 -79.22372 23078 ft 266 kts 115°
2026-05-08 23:39 25.56025 -79.20486 23280 ft 268 kts 115°
2026-05-08 23:39 25.55295 -79.18581 23482 ft 269 kts 115°
2026-05-08 23:39 25.54559 -79.16668 23669 ft 270 kts 115°
2026-05-08 23:39 25.53825 -79.14754 23869 ft 270 kts 115°
2026-05-08 23:40 25.53086 -79.12837 24050 ft 271 kts 115°
2026-05-08 23:40 25.52346 -79.10909 24231 ft 272 kts 115°
2026-05-08 23:40 25.51602 -79.08980 24412 ft 273 kts 115°
2026-05-08 23:40 25.50863 -79.07059 24593 ft 274 kts 115°
2026-05-08 23:41 25.50114 -79.05120 24779 ft 275 kts 115°
2026-05-08 23:41 25.49364 -79.03169 24968 ft 275 kts 115°
2026-05-08 23:41 25.48609 -79.01213 25152 ft 276 kts 115°
2026-05-08 23:41 25.47853 -78.99251 25338 ft 277 kts 115°
2026-05-08 23:42 25.47094 -78.97288 25519 ft 278 kts 115°
2026-05-08 23:42 25.46333 -78.95315 25708 ft 279 kts 115°
2026-05-08 23:42 25.45575 -78.93357 25892 ft 280 kts 115°
2026-05-08 23:42 25.44810 -78.91372 26080 ft 281 kts 115°
2026-05-08 23:43 25.44037 -78.89379 26264 ft 282 kts 115°
2026-05-08 23:43 25.43264 -78.87378 26463 ft 283 kts 115°
2026-05-08 23:43 25.42486 -78.85369 26648 ft 284 kts 115°
2026-05-08 23:43 25.41706 -78.83352 26843 ft 285 kts 115°
2026-05-08 23:44 25.40920 -78.81328 27034 ft 286 kts 115°
2026-05-08 23:44 25.40134 -78.79297 27227 ft 287 kts 115°
2026-05-08 23:44 25.39345 -78.77265 27420 ft 288 kts 115°
2026-05-08 23:44 25.38551 -78.75218 27614 ft 290 kts 115°
2026-05-08 23:45 25.37753 -78.73166 27805 ft 291 kts 115°
2026-05-08 23:45 25.36956 -78.71110 28029 ft 290 kts 115°
2026-05-08 23:45 25.36171 -78.69091 28288 ft 289 kts 115°
2026-05-08 23:45 25.35377 -78.67054 28523 ft 288 kts 115°
2026-05-08 23:46 25.34587 -78.65014 28767 ft 288 kts 115°
2026-05-08 23:46 25.33794 -78.62979 28995 ft 288 kts 115°
2026-05-08 23:46 25.33002 -78.60945 29221 ft 288 kts 115°
2026-05-08 23:46 25.32210 -78.58914 29439 ft 288 kts 115°
2026-05-08 23:47 25.31418 -78.56880 29664 ft 288 kts 115°
2026-05-08 23:47 25.30625 -78.54847 29878 ft 288 kts 115°
2026-05-08 23:47 25.29842 -78.52840 30083 ft 288 kts 115°
2026-05-08 23:47 25.29046 -78.50801 30267 ft 288 kts 115°
2026-05-08 23:48 25.28253 -78.48770 30439 ft 288 kts 115°
2026-05-08 23:48 25.27459 -78.46738 30620 ft 287 kts 115°
2026-05-08 23:48 25.26666 -78.44709 30798 ft 287 kts 115°
2026-05-08 23:48 25.25882 -78.42678 30972 ft 287 kts 115°
2026-05-08 23:49 25.25101 -78.40652 31148 ft 287 kts 115°
2026-05-08 23:49 25.24317 -78.38623 31321 ft 287 kts 115°
2026-05-08 23:49 25.23532 -78.36602 31493 ft 286 kts 115°
2026-05-08 23:49 25.22759 -78.34603 31662 ft 286 kts 115°
2026-05-08 23:50 25.21975 -78.32582 31831 ft 286 kts 115°
2026-05-08 23:50 25.21194 -78.30566 31999 ft 286 kts 115°
2026-05-08 23:50 25.20411 -78.28551 32164 ft 285 kts 115°
2026-05-08 23:50 25.19630 -78.26533 32329 ft 285 kts 115°
2026-05-08 23:51 25.18848 -78.24523 32491 ft 285 kts 115°
2026-05-08 23:51 25.18068 -78.22513 32660 ft 285 kts 115°
2026-05-08 23:51 25.17287 -78.20507 32816 ft 284 kts 115°
2026-05-08 23:51 25.16507 -78.18499 32964 ft 284 kts 115°
2026-05-08 23:52 25.15721 -78.16484 33015 ft 289 kts 115°
2026-05-08 23:52 25.14787 -78.14507 33019 ft 292 kts 128°
2026-05-08 23:52 25.13572 -78.12690 33027 ft 297 kts 129°
2026-05-08 23:52 25.12372 -78.10816 33025 ft 302 kts 128°
2026-05-08 23:53 25.09920 -78.07009 33024 ft 310 kts 129°
2026-05-08 23:53 25.07381 -78.03100 33029 ft 317 kts 129°
2026-05-08 23:54 25.04788 -77.99101 33030 ft 323 kts 129°
2026-05-08 23:55 25.00818 -77.92990 33026 ft 330 kts 128°
2026-05-08 23:55 24.98133 -77.88859 33029 ft 332 kts 128°
2026-05-08 23:56 24.95460 -77.84752 33029 ft 332 kts 128°
2026-05-08 23:56 24.92764 -77.80612 33022 ft 332 kts 128°
2026-05-08 23:57 24.90063 -77.76468 33019 ft 333 kts 128°
2026-05-08 23:57 24.87814 -77.73022 33019 ft 333 kts 128°
2026-05-08 23:58 24.85105 -77.68873 33020 ft 333 kts 129°
2026-05-08 23:58 24.82398 -77.64728 33020 ft 334 kts 129°
2026-05-08 23:59 24.79683 -77.60578 33009 ft 334 kts 128°
2026-05-08 23:59 24.76966 -77.56427 33008 ft 334 kts 128°
2026-05-09 00:00 24.74357 -77.52224 33008 ft 334 kts 123°
2026-05-09 00:00 24.71936 -77.47841 33012 ft 334 kts 123°
2026-05-09 00:01 24.69516 -77.43508 33015 ft 334 kts 123°
2026-05-09 00:01 24.67088 -77.39146 33017 ft 334 kts 123°
2026-05-09 00:02 24.64653 -77.34782 33017 ft 334 kts 123°
2026-05-09 00:02 24.62219 -77.30419 33017 ft 334 kts 123°
2026-05-09 00:03 24.59781 -77.26056 33017 ft 334 kts 123°
2026-05-09 00:03 24.57361 -77.21731 33018 ft 334 kts 123°
2026-05-09 00:04 24.54924 -77.17378 33018 ft 334 kts 123°
2026-05-09 00:04 24.52486 -77.13024 33019 ft 334 kts 123°
2026-05-09 00:05 24.50044 -77.08670 33019 ft 334 kts 123°
2026-05-09 00:05 24.47604 -77.04323 33022 ft 334 kts 123°
2026-05-09 00:06 24.45178 -77.00005 33022 ft 334 kts 123°
2026-05-09 00:06 24.42737 -76.95662 33017 ft 333 kts 123°
2026-05-09 00:07 24.40300 -76.91333 33021 ft 333 kts 123°
2026-05-09 00:07 24.37867 -76.87011 33021 ft 333 kts 123°
2026-05-09 00:08 24.35436 -76.82699 33021 ft 332 kts 123°
2026-05-09 00:08 24.33013 -76.78405 33024 ft 332 kts 123°
2026-05-09 00:09 24.30579 -76.74096 33026 ft 332 kts 123°
2026-05-09 00:09 24.28147 -76.69796 33026 ft 331 kts 123°
2026-05-09 00:10 24.25717 -76.65500 33023 ft 331 kts 123°
2026-05-09 00:10 24.23290 -76.61213 33023 ft 331 kts 123°
2026-05-09 00:11 24.20859 -76.56925 33023 ft 331 kts 123°
2026-05-09 00:11 24.18447 -76.52671 33023 ft 331 kts 123°
2026-05-09 00:12 24.16016 -76.48390 33023 ft 331 kts 123°
2026-05-09 00:12 24.13586 -76.44116 33024 ft 330 kts 123°
2026-05-09 00:13 24.11157 -76.39841 33025 ft 330 kts 123°
2026-05-09 00:13 24.08727 -76.35572 33025 ft 330 kts 123°
2026-05-09 00:14 24.06296 -76.31306 33025 ft 330 kts 123°
2026-05-09 00:14 24.03863 -76.27040 33025 ft 330 kts 123°
2026-05-09 00:15 24.01426 -76.22770 33025 ft 330 kts 123°
2026-05-09 00:15 23.99009 -76.18539 33025 ft 330 kts 123°
2026-05-09 00:16 23.96575 -76.14281 33028 ft 330 kts 122°
2026-05-09 00:16 23.94140 -76.10024 33029 ft 330 kts 123°
2026-05-09 00:17 23.91704 -76.05772 33035 ft 330 kts 123°
2026-05-09 00:17 23.89268 -76.01522 33034 ft 330 kts 123°
2026-05-09 00:18 23.86832 -75.97275 33035 ft 330 kts 123°
2026-05-09 00:18 23.84397 -75.93033 33029 ft 330 kts 123°
2026-05-09 00:19 23.81974 -75.88819 33035 ft 330 kts 123°
2026-05-09 00:19 23.79532 -75.84572 33035 ft 330 kts 123°
2026-05-09 00:20 23.77091 -75.80331 33032 ft 329 kts 123°
2026-05-09 00:20 23.74653 -75.76098 33033 ft 329 kts 122°
2026-05-09 00:21 23.72214 -75.71869 33034 ft 329 kts 122°
2026-05-09 00:21 23.69776 -75.67641 33027 ft 329 kts 122°
2026-05-09 00:22 23.67339 -75.63423 33027 ft 328 kts 122°
2026-05-09 00:22 23.64905 -75.59212 33028 ft 328 kts 122°
2026-05-09 00:23 23.62489 -75.55035 33028 ft 328 kts 122°
2026-05-09 00:23 23.60055 -75.50832 33028 ft 328 kts 122°
2026-05-09 00:24 23.57621 -75.46631 33030 ft 327 kts 122°
2026-05-09 00:24 23.55185 -75.42434 33034 ft 327 kts 122°
2026-05-09 00:25 23.52754 -75.38244 33034 ft 327 kts 122°
2026-05-09 00:25 23.50321 -75.34057 33038 ft 327 kts 122°
2026-05-09 00:26 23.47891 -75.29877 33037 ft 326 kts 122°
2026-05-09 00:26 23.45472 -75.25721 33037 ft 326 kts 122°
2026-05-09 00:27 23.43042 -75.21549 33038 ft 326 kts 122°
2026-05-09 00:27 23.40611 -75.17377 33035 ft 326 kts 122°
2026-05-09 00:28 23.38176 -75.13204 33035 ft 326 kts 122°
2026-05-09 00:28 23.35742 -75.09034 33035 ft 326 kts 122°
2026-05-09 00:29 23.33307 -75.04867 33036 ft 326 kts 122°
2026-05-09 00:29 23.30891 -75.00735 33038 ft 325 kts 122°
2026-05-09 00:30 23.28466 -74.96591 33037 ft 324 kts 122°
2026-05-09 00:30 23.26041 -74.92452 33034 ft 324 kts 122°
2026-05-09 00:31 23.23618 -74.88319 33036 ft 324 kts 122°
2026-05-09 00:31 23.21194 -74.84186 33037 ft 323 kts 122°
2026-05-09 00:32 23.18774 -74.80066 33037 ft 323 kts 122°
2026-05-09 00:32 23.16355 -74.75949 33036 ft 323 kts 122°
2026-05-09 00:33 23.13935 -74.71834 33036 ft 323 kts 122°
2026-05-09 00:33 23.11517 -74.67726 33036 ft 323 kts 122°
2026-05-09 00:34 23.09112 -74.63644 33036 ft 323 kts 123°
2026-05-09 00:34 23.06690 -74.59534 33037 ft 323 kts 122°
2026-05-09 00:35 23.04271 -74.55434 33034 ft 323 kts 123°
2026-05-09 00:35 23.01845 -74.51325 33035 ft 322 kts 123°
2026-05-09 00:36 22.99424 -74.47229 33035 ft 322 kts 123°
2026-05-09 00:36 22.97019 -74.43161 33034 ft 322 kts 123°
2026-05-09 00:37 22.94596 -74.39068 33028 ft 322 kts 123°
2026-05-09 00:37 22.92178 -74.34986 33031 ft 321 kts 123°
2026-05-09 00:38 22.89761 -74.30909 33033 ft 321 kts 123°
2026-05-09 00:38 22.87346 -74.26837 33033 ft 321 kts 123°
2026-05-09 00:39 22.84933 -74.22774 33032 ft 320 kts 123°
2026-05-09 00:39 22.82521 -74.18714 33032 ft 320 kts 123°
2026-05-09 00:40 22.80127 -74.14688 33032 ft 320 kts 123°
2026-05-09 00:40 22.77702 -74.10613 33032 ft 320 kts 123°
2026-05-09 00:41 22.74100 -74.04566 33033 ft 319 kts 123°
2026-05-09 00:41 22.71691 -74.00524 33034 ft 319 kts 123°
2026-05-09 00:42 22.69280 -73.96486 33038 ft 319 kts 123°
2026-05-09 00:42 22.66870 -73.92450 33036 ft 319 kts 123°
2026-05-09 00:43 22.64459 -73.88415 33037 ft 319 kts 123°
2026-05-09 00:43 22.62047 -73.84383 33037 ft 319 kts 123°
2026-05-09 00:44 22.59651 -73.80379 33035 ft 319 kts 123°
2026-05-09 00:44 22.57254 -73.76377 32531 ft 316 kts 123°
2026-05-09 00:45 22.56051 -73.74370 31969 ft 319 kts 123°
2026-05-09 00:45 22.54847 -73.72362 31456 ft 319 kts 123°
2026-05-09 00:45 22.53632 -73.70340 30935 ft 319 kts 123°
2026-05-09 00:45 22.52438 -73.68347 30416 ft 319 kts 123°
2026-05-09 00:46 22.51621 -73.66987 30053 ft 319 kts 123°
2026-05-09 00:46 22.50412 -73.64971 29409 ft 320 kts 123°
2026-05-09 00:46 22.49197 -73.62949 28743 ft 321 kts 123°
2026-05-09 00:46 22.47579 -73.60260 27886 ft 322 kts 122°
2026-05-09 00:47 22.46360 -73.58232 27309 ft 320 kts 122°
2026-05-09 00:47 22.45557 -73.56897 26947 ft 318 kts 122°
2026-05-09 00:47 22.44355 -73.54899 26394 ft 316 kts 122°
2026-05-09 00:47 22.43161 -73.52916 25863 ft 313 kts 122°
2026-05-09 00:48 22.41978 -73.50951 25362 ft 309 kts 121°
2026-05-09 00:48 22.40810 -73.49009 24851 ft 307 kts 121°
2026-05-09 00:48 22.39649 -73.47085 24353 ft 304 kts 121°
2026-05-09 00:48 22.38501 -73.45178 23884 ft 301 kts 121°
2026-05-09 00:49 22.37359 -73.43285 23363 ft 299 kts 120°
2026-05-09 00:49 22.36230 -73.41410 22803 ft 296 kts 120°
2026-05-09 00:49 22.35108 -73.39554 22259 ft 293 kts 120°
2026-05-09 00:49 22.34001 -73.37717 21730 ft 290 kts 120°
2026-05-09 00:50 22.32902 -73.35900 21212 ft 287 kts 119°
2026-05-09 00:50 22.31829 -73.34121 20713 ft 285 kts 119°
2026-05-09 00:50 22.30751 -73.32338 20222 ft 282 kts 119°
2026-05-09 00:50 22.29684 -73.30571 19732 ft 280 kts 118°
2026-05-09 00:51 22.28615 -73.28804 19522 ft 279 kts 118°
2026-05-09 00:51 22.27559 -73.27057 19359 ft 277 kts 118°
2026-05-09 00:51 22.26503 -73.25312 19169 ft 277 kts 118°
2026-05-09 00:51 22.25454 -73.23575 18988 ft 276 kts 118°
2026-05-09 00:52 22.24402 -73.21841 18811 ft 275 kts 117°
2026-05-09 00:52 22.23358 -73.20115 18629 ft 274 kts 117°
2026-05-09 00:52 22.22314 -73.18393 18460 ft 273 kts 117°
2026-05-09 00:52 22.21278 -73.16681 18283 ft 272 kts 117°
2026-05-09 00:53 22.20247 -73.14983 18110 ft 270 kts 117°
2026-05-09 00:53 22.19222 -73.13291 17918 ft 269 kts 117°
2026-05-09 00:53 22.18200 -73.11605 17735 ft 268 kts 117°
2026-05-09 00:53 22.17182 -73.09928 17548 ft 267 kts 117°
2026-05-09 00:54 22.16168 -73.08257 17371 ft 266 kts 117°
2026-05-09 00:54 22.15156 -73.06591 17198 ft 264 kts 117°
2026-05-09 00:54 22.14163 -73.04955 17030 ft 263 kts 118°
2026-05-09 00:54 22.13160 -73.03303 16864 ft 262 kts 117°
2026-05-09 00:55 22.12162 -73.01661 16701 ft 261 kts 118°
2026-05-09 00:55 22.11168 -73.00026 16540 ft 260 kts 118°
2026-05-09 00:55 22.10179 -72.98398 16383 ft 259 kts 118°
2026-05-09 00:55 22.09190 -72.96774 16230 ft 258 kts 118°
2026-05-09 00:56 22.08207 -72.95157 16079 ft 257 kts 118°
2026-05-09 00:56 22.07225 -72.93545 15928 ft 257 kts 118°
2026-05-09 00:56 22.06247 -72.91937 15780 ft 256 kts 118°
2026-05-09 00:56 22.05272 -72.90336 15638 ft 255 kts 118°
2026-05-09 00:57 22.04300 -72.88739 15497 ft 254 kts 118°
2026-05-09 00:57 22.03329 -72.87149 15360 ft 253 kts 118°
2026-05-09 00:57 22.02365 -72.85564 15226 ft 253 kts 118°
2026-05-09 00:57 22.01400 -72.83983 15090 ft 252 kts 118°
2026-05-09 00:58 22.00443 -72.82410 14953 ft 251 kts 118°
2026-05-09 00:58 21.99483 -72.80840 14831 ft 250 kts 118°
2026-05-09 00:58 21.98529 -72.79273 14702 ft 249 kts 118°
2026-05-09 00:58 21.97576 -72.77714 14577 ft 249 kts 118°
2026-05-09 00:59 21.96638 -72.76177 14456 ft 248 kts 119°
2026-05-09 00:59 21.95700 -72.74645 14130 ft 243 kts 119°
2026-05-09 00:59 21.94766 -72.73114 13592 ft 243 kts 119°
2026-05-09 00:59 21.93841 -72.71599 13124 ft 240 kts 120°
2026-05-09 01:00 21.92925 -72.70104 12636 ft 237 kts 120°
2026-05-09 01:00 21.92023 -72.68627 12155 ft 234 kts 120°
2026-05-09 01:00 21.91133 -72.67172 11671 ft 232 kts 120°
2026-05-09 01:00 21.90252 -72.65736 11221 ft 228 kts 121°
2026-05-09 01:01 21.89386 -72.64314 10726 ft 227 kts 121°
2026-05-09 01:01 21.88531 -72.62919 10290 ft 224 kts 121°
2026-05-09 01:01 21.87683 -72.61534 9823 ft 221 kts 122°
2026-05-09 01:01 21.86839 -72.60154 9335 ft 218 kts 122°
2026-05-09 01:02 21.86003 -72.58795 8794 ft 218 kts 122°
2026-05-09 01:02 21.85168 -72.57426 8296 ft 217 kts 122°
2026-05-09 01:02 21.84345 -72.56084 7820 ft 213 kts 122°
2026-05-09 01:02 21.83535 -72.54763 7366 ft 210 kts 122°
2026-05-09 01:03 21.82736 -72.53464 6953 ft 205 kts 122°
2026-05-09 01:03 21.81984 -72.52237 6795 ft 191 kts 122°
2026-05-09 01:03 21.81260 -72.51052 6468 ft 187 kts 122°
2026-05-09 01:03 21.80545 -72.49887 6063 ft 186 kts 122°
2026-05-09 01:04 21.79821 -72.48708 5563 ft 191 kts 122°
2026-05-09 01:04 21.79088 -72.47516 5208 ft 188 kts 122°
2026-05-09 01:04 21.78434 -72.46381 5081 ft 173 kts 113°
2026-05-09 01:04 21.78342 -72.45124 4730 ft 173 kts 76°
2026-05-09 01:05 21.78944 -72.44023 4380 ft 173 kts 61°
2026-05-09 01:05 21.79078 -72.42808 4039 ft 166 kts 108°
2026-05-09 01:05 21.78143 -72.40798 3242 ft 137 kts 100°
2026-05-09 01:06 21.78044 -72.39823 3061 ft 122 kts 91°
2026-05-09 01:06 21.77978 -72.38971 3058 ft 107 kts 90°
2026-05-09 01:06 21.77935 -72.38124 2923 ft 123 kts 91°
2026-05-09 01:06 21.77901 -72.37148 2621 ft 133 kts 91°
2026-05-09 01:07 21.77838 -72.36210 2344 ft 121 kts 94°
2026-05-09 01:07 21.77772 -72.35317 2078 ft 120 kts 91°
2026-05-09 01:07 21.77726 -72.34478 1658 ft 109 kts 92°
2026-05-09 01:07 21.77667 -72.33681 1219 ft 105 kts 89°
2026-05-09 01:08 21.77660 -72.32897 955 ft 107 kts 88°
2026-05-09 01:08 21.77614 -72.32110 848 ft 103 kts 90°
2026-05-09 01:08 21.77582 -72.31323 744 ft 108 kts 88°
2026-05-09 01:08 21.77547 -72.30518 564 ft 107 kts 91°
2026-05-09 01:09 21.77523 -72.29708 415 ft 110 kts 91°
2026-05-09 01:09 21.77470 -72.28893 232 ft 107 kts 91°
2026-05-09 01:09 21.77427 -72.28083 73 ft 106 kts 92°
2026-05-09 01:09 21.77392 -72.27321 33 ft 95 kts 91°
2026-05-09 01:10 21.77371 -72.26798 31 ft 50 kts 92°
2026-05-09 01:10 21.77357 -72.26453 32 ft 33 kts 94°
2026-05-09 01:10 21.77352 -72.26309 31 ft 9 kts 83°
2026-05-09 01:10 21.77398 -72.26291 32 ft 8 kts
2026-05-09 01:11 21.77450 -72.26288 34 ft 7 kts
2026-05-09 01:11 21.77492 -72.26286 35 ft 4 kts
2026-05-09 01:11 21.77507 -72.26285 36 ft 0 kts
2026-05-09 01:11 21.77515 -72.26284 36 ft 4 kts
2026-05-09 01:12 21.77530 -72.26265 36 ft 3 kts 91°
2026-05-09 01:12 21.77530 -72.26263 36 ft 0 kts 91°